Forside
METAR-TAF:

METAR-TAF

Lufthavne :

Poplar Bluff Municipal Airport

Poplar Bluff, Missouri, USA

Breddekreds: 36-46-14N, længdekreds: 090-19-20W, højde: 100 m

Aktuelle vejr

Denne rapport blev lavet for 19 minutter siden, kl. 11:53 UTC
Vind 7 kt fra sydsydøst
Temperatur 2°C
Fugtighed 69%
Tryk 1021 hPa
Sigt: 16.1 km
Overskyet i en højde af 4900 ft

METAR: KPOF 221153Z AUTO 16007KT 10SM OVC049 02/M03 A3015 RMK AO2 SLP215 T00171028 10017 21011 58016

Tid: 06:12 (12:12 UTC)


TAF: fraværende

Vejrobservationer og prognoser fra mere end 4000 lufthavne (METAR og TAF).

De gule og røde prikker repræsenterer de meteorologiske stationer.

Flyt musen over at se navnet på stationen.

Så klik over at se vejr observationer og prognoser.

At skifte det kort: Klik på de grønne knapper med et sort kors for at zoome ind; på den grønne knap med en bindestreg for at zoome ud; eller på de grønne pile for tilstødende kort.


METAR-TAF: